Hettinger, ND

11:41 AM MST on December 10, 2016 (GMT -0700)
Hettinger Municipal

Weather History for KHEI - August, 2013

Change the Weather History Date:

Sunday, August 18, 2013

  Actual Average Record
Temperature  
Mean Temperature 72 °F -  
Max Temperature 89 °F 84 °F 96 °F (1998)
Min Temperature 54 °F 53 °F 32 °F (2004)
Cooling Degree Days 7 5  
Month to date cooling degree days 29 104  
Year to date cooling degree days 127 304  
Since 1 June cooling degree days 120 299  
Growing Degree Days 21 (Base 50)    
Moisture  
Dew Point 58 °F    
Average Humidity 67    
Maximum Humidity 93    
Minimum Humidity 34    
Precipitation  
Precipitation 0.00 in 0.05 in 0.19 in (2006)
Month to date precipitation 1.52 1.09  
Year to date precipitation 16.22 11.67  
Sea Level Pressure  
Sea Level Pressure 29.90 in    
Wind  
Wind Speed 6 mph (NE)    
Max Wind Speed 20 mph    
Max Gust Speed 23 mph    
Visibility 9 miles    
Events      
T = Trace of Precipitation, MM = Missing Value Source: NWS Daily Summary

Daily Weather History Graph

Daily Weather History Graph

Search for Another Location

Airport or City:

Trip Planner

Search our weather history database for the weather conditions in past years. The results will help you decide how hot, cold, wet, or windy it might be!

Date:

Astronomy

Aug. 18, 2013 Rise Set
Actual Time 5:54 AM MDT 7:53 PM MDT
Civil Twilight 5:21 AM MDT 8:25 PM MDT
Nautical Twilight 4:42 AM MDT 9:05 PM MDT
Astronomical Twilight 3:58 AM MDT 9:48 PM MDT
Moon 6:04 PM MDT (8/18) 3:01 AM MDT (8/18)
Length of Visible Light 15h 03m
Length of Day
13h 59m
Waxing Gibbous, 92% of the Moon is Illuminated
Aug 18
Waxing Gibbous
Aug 20
Full
Aug 28
Last Quarter
Sep 5
New
Sep 12
First Quarter

Hourly Weather History & Observations

Time (MDT) Temp. Heat Index Dew Point Humidity Pressure Visibility Wind Dir Wind Speed Gust Speed Precip Events Conditions
12:53 AM 66.0 °F - 61.0 °F 84% 29.87 in 10.0 mi Calm Calm - N/A   Clear
1:53 AM 62.1 °F - 60.1 °F 93% 29.87 in 10.0 mi NW 6.9 mph - N/A   Clear
2:53 AM 57.9 °F - 55.9 °F 93% 29.87 in 5.0 mi Calm Calm - N/A   Clear
3:53 AM 57.0 °F - 55.0 °F 93% 29.88 in 7.0 mi Calm Calm - N/A   Clear
4:53 AM 57.0 °F - 55.0 °F 93% 29.88 in 7.0 mi Calm Calm - N/A   Clear
5:53 AM 55.0 °F - 53.1 °F 93% 29.89 in 8.0 mi Calm Calm - N/A   Clear
6:53 AM 57.9 °F - 55.0 °F 90% 29.91 in 8.0 mi Calm Calm - N/A   Clear
7:53 AM 66.0 °F - 61.0 °F 84% 29.89 in 10.0 mi Calm Calm - N/A   Clear
8:53 AM 69.1 °F - 63.0 °F 81% 29.91 in 10.0 mi South 5.8 mph - N/A   Clear
9:53 AM 68.0 °F - 62.1 °F 81% 29.93 in 10.0 mi North 6.9 mph - N/A   Clear
10:53 AM 73.0 °F - 63.0 °F 71% 29.93 in 10.0 mi NNE 4.6 mph - N/A   Clear
11:53 AM 80.1 °F 81.1 °F 61.0 °F 52% 29.91 in 10.0 mi North 8.1 mph - N/A   Unknown
12:53 PM 84.0 °F 84.9 °F 63.0 °F 49% 29.90 in 10.0 mi North 17.3 mph 23.0 mph N/A   Clear
1:53 PM 87.1 °F 86.7 °F 60.1 °F 40% 29.91 in 10.0 mi North 10.4 mph 17.3 mph N/A   Clear
2:23 PM 87.8 °F 86.5 °F 57.2 °F 35% 29.95 in 10.0 mi NNE 12.7 mph 19.6 mph N/A   Partly Cloudy
2:53 PM 82.9 °F 82.6 °F 57.9 °F 42% 29.91 in 10.0 mi NE 10.4 mph - N/A   Clear
3:53 PM 87.1 °F 85.7 °F 55.9 °F 35% 29.89 in 10.0 mi ENE 13.8 mph - N/A   Clear
4:53 PM 87.1 °F 85.3 °F 55.0 °F 33% 29.88 in 10.0 mi NE 15.0 mph - N/A   Clear
5:53 PM 84.0 °F 83.5 °F 57.9 °F 41% 29.90 in 10.0 mi East 11.5 mph - N/A   Clear
6:53 PM 79.0 °F - 57.9 °F 48% 29.91 in 10.0 mi NNE 10.4 mph - N/A   Clear
7:53 PM 73.0 °F - 57.9 °F 59% 29.91 in 10.0 mi NE 6.9 mph - N/A   Clear
8:53 PM 66.0 °F - 57.0 °F 73% 29.92 in 10.0 mi ENE 8.1 mph - N/A   Clear
9:53 PM 66.9 °F - 57.0 °F 70% 29.94 in 10.0 mi NE 6.9 mph - N/A   Clear
10:53 PM 64.9 °F - 55.9 °F 73% 29.93 in 10.0 mi East 3.5 mph - N/A   Clear
11:53 PM 62.1 °F - 55.0 °F 78% 29.93 in 10.0 mi NE 4.6 mph - N/A   Clear